This demonstration page uses our WeatherBlox Daily Observations layout. Learn more.

Left ArrowRight Arrow

38.80484, -77.04692

Hourly Observations for October 27, 2021

Temp ( °F °C ) Dew Point ( °F °C ) Humidity (%) Winds ( mph kmh ) Pressure ( in mb ) Visibility ( mi km ) Precip ( " mm )
12:52 am 00:52 Cloudy 53 11.7 39 3.9 59 59 NW 18 30 29.65 1004 10 16 N/A
1:52 am 01:52 Cloudy 53 11.7 40 4.4 61 61 NW 20 31 29.66 1004 10 16 N/A
2:52 am 02:52 Cloudy 53 11.7 42 5.6 66 66 NNW 17 28 29.67 1005 10 16 N/A
3:28 am 03:28 Cloudy 53 11.7 42 5.6 66 66 NW 15 24 29.67 1005 10 16 N/A
3:52 am 03:52 Cloudy 53 11.7 43 6.1 69 69 NNW 16 26 29.67 1005 10 16 N/A
4:00 am 04:00 Cloudy 53 11.7 43 6.1 69 69 NW 16 26 29.68 1005 10 16 N/A
4:39 am 04:39 Cloudy 53 11.7 44 6.7 72 72 NNW 20 31 29.70 1006 10 16 N/A
4:52 am 04:52 Cloudy 53 11.7 44 6.7 72 72 NNW 14 22 29.70 1006 10 16 N/A
5:04 am 05:04 Cloudy 53 11.7 44 6.7 72 72 NW 18 30 29.71 1006 10 16 N/A
5:52 am 05:52 Cloudy 54 12.2 45 7.2 72 72 NW 15 24 29.72 1006 10 16 N/A
6:52 am 06:52 Cloudy 54 12.2 44 6.7 69 69 NW 9 15 29.74 1007 10 16 0.00 0.00
7:52 am 07:52 Mostly Cloudy 54 12.2 45 7.2 72 72 NNW 13 20 29.75 1008 10 16 N/A
8:52 am 08:52 Mostly Cloudy 55 12.8 45 7.2 69 69 NNW 12 19 29.75 1008 10 16 N/A
9:52 am 09:52 Mostly Cloudy 59 15 45 7.2 60 60 NW 16 26 29.76 1008 10 16 N/A
10:52 am 10:52 Partly Cloudy 63 17.2 47 8.3 56 56 NNW 16 26 29.78 1008 10 16 N/A
11:52 am 11:52 Mostly Sunny 65 18.3 49 9.4 56 56 NNW 20 31 29.77 1008 10 16 N/A
12:52 pm 12:52 Mostly Sunny 67 19.4 49 9.4 53 53 NNW 22 35 29.77 1008 10 16 N/A
1:52 pm 13:52 Mostly Sunny 70 21.1 50 10 49 49 NW 21 33 29.77 1008 10 16 N/A
2:52 pm 14:52 Mostly Sunny 71 21.7 51 10.6 49 49 NNW 17 28 29.76 1008 10 16 N/A
3:52 pm 15:52 Mostly Sunny 71 21.7 51 10.6 49 49 NW 15 24 29.76 1008 10 16 N/A
4:52 pm 16:52 Mostly Sunny 71 21.7 51 10.6 49 49 NW 15 24 29.78 1009 10 16 N/A
5:52 pm 17:52 Mostly Sunny 68 20 50 10 53 53 NW 12 19 29.80 1009 10 16 N/A
6:52 pm 18:52 Clear 66 18.9 50 10 56 56 NW 9 15 29.82 1010 10 16 N/A
7:52 pm 19:52 Clear 65 18.3 51 10.6 61 61 NNW 12 19 29.84 1010 10 16 N/A
8:52 pm 20:52 Clear 63 17.2 50 10 63 63 NNW 9 15 29.85 1011 10 16 N/A
9:52 pm 21:52 Clear 62 16.7 50 10 65 65 NNW 9 15 29.87 1012 10 16 N/A
10:52 pm 22:52 Clear 59 15 49 9.4 69 69 NNW 6 9 29.89 1012 10 16 N/A
11:52 pm 23:52 Mostly Clear 56 13.3 49 9.4 77 77 N 6 9 29.89 1012 10 16 N/A

Powered by AerisWeather